{"data":{"norad_id":53565,"epoch":"2026-09-20T23:10:15.397536Z","epoch_age_seconds":37990,"freshness":"FRESH","line1":"1 53565U 22101AQ  26263.96545599  .00000252  00000+0  18599-4 0  9995","line2":"2 53565  53.1566 241.5029 0001233  94.3046 265.8097 15.34394845226801","mean_motion":15.34394845,"eccentricity":0.0001233,"inclination_deg":53.1566,"raan_deg":241.5029,"arg_perigee_deg":94.3046,"mean_anomaly_deg":265.8097,"bstar":1.8599e-5,"rev_number":22680,"period_min":93.848073375142,"perigee_km":461.87508450557,"apogee_km":463.56203948716,"semimajor_km":6840.8555619964,"source":"CELESTRAK","updated_at":"2026-09-21T09:00:32.929086Z"}}